Location: *
(42.0175°N, 9.4056°E)
Time: 06:03:46
(UTC+00:00)

Cosmos 2360 Rocket - Pass Details

Date: 25 August 2019
Orbit: 834 x 844 km, 71.0° (Epoch: 19 September)

Event Time Altitude Azimuth Distance (km) Brightness Sun altitude
Rises 23:21:05 0° 327° (NNW) 3,395 6.0 -37.4°
Reaches altitude 10° 23:23:43 10° 318° (NW) 2,458 5.1 -37.4°
Enters shadow 23:25:22 18° 308° (NW) 1,926 4.3 -37.4°
